DW2489 Weather Reports


time (UTC)temp
C
wind
direction
speed
KPH
gust
KPH
rain 1hr
cm
rain 24hr
cm
rain mn
cm
humidity
%
barometer
mb
20260510182719 18 223 6.4 19.3 0.00 0.03 0.00 1012.5
20260510182218 18 243 9.7 24.1 0.00 0.05 0.00 1012.5
20260510181614 18 261 9.7 25.7 0.00 0.05 0.00 1012.5
20260510181042 18 264 9.7 25.7 0.00 0.05 0.00 1012.5
20260510180541 17 239 4.8 24.1 0.00 0.08 0.00 1012.5
20260510180040 17 229 8.0 19.3 0.00 0.10 0.00 1012.5
20260510175539 17 275 4.8 24.1 0.00 0.13 0.00 1012.5
20260510175036 17 256 11.3 24.1 0.00 0.13 0.00 1012.5
20260510174534 17 261 9.7 24.1 0.00 0.15 0.00 1012.5
20260510174033 17 224 9.7 20.9 0.00 0.15 0.00 1012.2
20260510173533 17 254 6.4 16.1 0.00 0.18 0.00 1012.2
20260510172928 17 262 8.0 19.3 0.00 0.20 0.00 1012.2
20260510172427 17 259 3.2 24.1 0.00 0.20 0.00 1012.2
20260510171924 17 322 1.6 24.1 0.00 0.20 0.00 1012.2
20260510171421 16 277 12.9 24.1 0.00 0.23 0.00 1012.2
20260510170919 16 290 12.9 20.9 0.00 0.23 0.00 1012.2
20260510170313 16 276 8.0 20.9 0.00 0.25 0.00 1012.5
20260510165812 16 250 8.0 29.0 0.00 0.25 0.00 1012.5
20260510165239 16 261 11.3 29.0 0.00 0.25 0.00 1012.5
20260510164706 16 271 12.9 25.7 0.00 0.25 0.00 1012.5
20260510164134 16 251 12.9 25.7 0.00 0.25 0.00 1012.2
20260510163601 15 299 4.8 16.1 0.00 0.28 0.00 1012.2
20260510162958 15 264 6.4 16.1 0.00 0.28 0.00 1012.5
20260510162457 15 239 6.4 14.5 0.00 0.28 0.00 1012.5
20260510161956 15 269 6.4 20.9 0.00 0.30 0.00 1012.5
20260510161423 15 278 8.0 24.1 0.00 0.30 0.00 1012.5
20260510160922 14 256 0.0 24.1 0.00 0.30 0.00 1012.5
20260510160422 14 278 11.3 24.1 0.00 0.30 0.00 1012.5
20260510155920 14 31 4.8 20.9 0.00 0.30 0.00 1012.5
20260510155418 14 327 3.2 20.9 0.00 0.33 0.00 1012.9
20260510154916 14 293 6.4 20.9 0.00 0.36 0.00 1012.5
20260510154344 14 266 6.4 20.9 0.00 0.36 0.00 1012.5
20260510153843 14 293 8.0 24.1 0.00 0.36 0.00 1012.5
20260510153342 14 259 4.8 30.6 0.00 0.36 0.00 1012.5
20260510152841 14 284 9.7 30.6 0.00 0.38 0.00 1012.5
20260510152340 14 275 12.9 30.6 0.00 0.38 0.00 1012.2
20260510151838 14 258 6.4 14.5 0.00 0.41 0.00 1012.2
20260510151336 13 207 6.4 16.1 0.00 0.41 0.00 1012.2
20260510150835 13 230 4.8 16.1 0.00 0.41 0.00 1012.2
20260510150334 13 262 6.4 16.1 0.00 0.43 0.00 1012.2
20260510145832 13 280 3.2 16.1 0.00 0.46 0.00 1012.2
20260510145331 13 261 8.0 19.3 0.00 0.48 0.00 1011.9
20260510144830 13 271 6.4 19.3 0.00 0.51 0.00 1011.9
20260510144329 14 257 9.7 19.3 0.00 0.51 0.00 1011.9
20260510143828 14 281 3.2 16.1 0.00 0.53 0.00 1011.9
20260510143326 14 267 6.4 16.1 0.00 0.56 0.00 1011.9
20260510142825 14 292 6.4 16.1 0.00 0.58 0.00 1011.5
20260510142323 14 298 1.6 11.3 0.00 0.61 0.00 1011.5
20260510141822 14 223 3.2 6.4 0.00 0.61 0.00 1011.5
20260510141319 13 223 0.0 6.4 0.00 0.64 0.00 1011.2
20260510140814 13 223 1.6 6.4 0.00 0.66 0.00 1011.2
20260510140312 13 223 0.0 4.8 0.00 0.66 0.00 1011.2
20260510135809 13 223 0.0 6.4 0.00 0.69 0.00 1011.2
20260510135308 13 223 0.0 6.4 0.00 0.69 0.00 1011.2
20260510134804 13 219 0.0 9.7 0.00 0.71 0.00 1011.2
20260510134230 13 219 1.6 9.7 0.00 0.71 0.00 1011.5
20260510133730 14 253 4.8 9.7 0.00 0.71 0.00 1011.2
20260510133228 13 294 1.6 11.3 0.00 0.71 0.00 1010.8
20260510132727 13 296 3.2 11.3 0.00 0.74 0.00 1010.8
20260510132226 13 290 4.8 11.3 0.00 0.74 0.00 1010.8
20260510131723 13 284 1.6 11.3 0.00 0.76 0.00 1010.8
20260510131222 13 287 4.8 11.3 0.00 0.76 0.00 1010.8
20260510130720 13 259 4.8 9.7 0.00 0.76 0.00 1010.8
20260510130219 13 209 1.6 4.8 0.00 0.79 0.00 1010.8
20260510125717 12 209 0.0 4.8 0.00 0.79 0.00 1010.8
20260510125215 12 209 0.0 6.4 0.00 0.81 0.00 1010.5
20260510124713 12 209 0.0 6.4 0.00 0.81 0.00 1010.5
20260510124210 12 238 0.0 6.4 0.00 0.81 0.00 1010.5
20260510123709 12 238 1.6 6.4 0.00 0.84 0.00 1010.8
20260510123207 12 237 1.6 6.4 0.00 0.84 0.00 1010.5
20260510122705 12 229 3.2 6.4 0.00 0.84 0.00 1010.5
20260510122203 12 265 3.2 6.4 0.00 0.84 0.00 1010.8
20260510121702 11 228 4.8 6.4 0.00 0.84 0.00 1010.5
20260510121129 11 215 0.0 6.4 0.00 0.86 0.00 1010.5
20260510120627 11 215 0.0 4.8 0.00 0.86 0.00 1010.8
20260510120126 11 215 0.0 4.8 0.00 0.86 0.00 1010.5
20260510115522 11 215 1.6 9.7 0.00 0.86 0.00 1010.5
20260510115021 11 214 0.0 9.7 0.00 0.86 0.00 1010.5
20260510114519 11 238 0.0 4.8 0.00 0.86 0.00 1010.5
20260510114019 11 238 0.0 4.8 0.00 0.86 0.00 1010.5
20260510113517 11 238 0.0 4.8 0.00 0.86 0.00 1010.5
20260510113016 11 257 1.6 6.4 0.00 0.86 0.00 1010.5
20260510112513 11 246 1.6 11.3 0.00 0.86 0.00 1010.5
20260510111941 11 156 3.2 11.3 0.00 0.86 0.00 1010.5
20260510111440 11 209 1.6 11.3 0.00 0.86 0.00 1010.5
20260510110939 11 191 0.0 11.3 0.00 0.86 0.00 1010.2
20260510110406 11 191 1.6 11.3 0.00 0.86 0.00 1010.2
20260510105905 11 202 3.2 9.7 0.00 0.86 0.00 1010.2
20260510105403 10 202 1.6 6.4 0.00 0.86 0.00 1010.2
20260510104830 10 202 0.0 3.2 0.00 0.86 0.00 1010.2
20260510104328 10 202 0.0 0.0 0.00 0.86 0.00 1010.2
20260510103824 10 202 0.0 6.4 0.00 0.86 0.00 1009.8
20260510103323 10 202 0.0 6.4 0.00 0.86 0.00 1009.8
20260510102751 10 202 0.0 6.4 0.00 0.86 0.00 1009.8
20260510102249 10 202 0.0 4.8 0.00 0.86 0.00 1009.8
20260510101746 10 202 0.0 4.8 0.00 0.86 0.00 1009.5
20260510101246 10 196 0.0 0.0 0.00 0.86 0.00 1009.5
20260510100745 10 197 0.0 0.0 0.00 0.86 0.00 1009.5
20260510100244 10 197 0.0 0.0 0.00 0.86 0.00 1009.5
20260510095743 10 197 0.0 4.8 0.00 0.86 0.00 1009.5
20260510095211 10 197 0.0 4.8 0.00 0.86 0.00 1009.1
20260510094708 10 197 1.6 4.8 0.00 0.86 0.00 1009.1
20260510094204 10 197 0.0 11.3 0.00 0.86 0.00 1009.1
20260510093701 10 197 1.6 11.3 0.00 0.86 0.00 1008.8
20260510093125 10 211 0.0 0.0 0.00 0.86 0.00 1008.8
20260510092519 10 211 0.0 0.0 0.00 0.86 0.00 1008.8
20260510092018 10 211 0.0 0.0 0.00 0.86 0.00 1008.8
20260510091516 10 211 0.0 0.0 0.00 0.86 0.00 1008.8
20260510090943 10 211 0.0 0.0 0.00 0.86 0.00 1008.8
20260510090442 10 211 0.0 0.0 0.00 0.86 0.00 1008.8
20260510085941 10 211 0.0 0.0 0.00 0.86 0.00 1008.8
20260510085440 10 211 0.0 0.0 0.00 0.86 0.00 1008.5
20260510084939 10 211 0.0 0.0 0.00 0.86 0.00 1008.5
20260510084407 10 211 0.0 0.0 0.00 0.86 0.00 1008.8
20260510083904 10 211 0.0 3.2 0.00 0.86 0.00 1008.8
20260510083402 10 211 0.0 3.2 0.00 0.86 0.00 1008.8
20260510082901 10 179 0.0 3.2 0.00 0.86 0.00 1008.8
20260510082400 10 178 0.0 4.8 0.00 0.86 0.00 1008.8
20260510081858 10 178 0.0 9.7 0.00 0.86 0.00 1008.8
20260510081326 10 178 0.0 9.7 0.00 0.86 0.00 1008.8
20260510080823 10 178 3.2 9.7 0.00 0.86 0.00 1008.8
20260510080320 11 178 3.2 9.7 0.00 0.86 0.00 1008.8
20260510075819 11 178 3.2 9.7 0.00 0.86 0.00 1008.8
20260510075318 11 217 3.2 14.5 0.00 0.86 0.00 1008.5
20260510074744 11 217 1.6 14.5 0.00 0.86 0.00 1008.5
20260510074243 11 156 6.4 14.5 0.00 0.86 0.00 1008.1
20260510073738 11 158 4.8 9.7 0.00 0.86 0.00 1008.5
20260510073237 11 157 3.2 9.7 0.00 0.86 0.00 1008.5
20260510072735 11 155 4.8 11.3 0.00 0.86 0.00 1008.5
20260510072234 11 169 0.0 11.3 0.00 0.86 0.00 1008.5
20260510071732 11 217 1.6 9.7 0.00 0.86 0.00 1008.8
20260510071230 11 217 4.8 6.4 0.00 0.86 0.00 1009.1
20260510070728 11 217 3.2 6.4 0.00 0.86 0.00 1009.5
20260510070226 11 217 0.0 4.8 0.00 0.86 0.00 1009.1
20260510065725 11 217 1.6 4.8 0.00 0.86 0.00 1009.5
20260510065224 11 217 1.6 4.8 0.00 0.86 0.00 1009.5
20260510064650 11 217 0.0 4.8 0.00 0.86 0.00 1009.5
20260510064149 11 219 0.0 4.8 0.00 0.86 0.00 1009.5
20260510063647 11 260 1.6 4.8 0.00 0.86 0.00 1009.5
20260510063145 11 263 0.0 6.4 0.00 0.86 0.00 1009.5
20260510062644 11 263 0.0 6.4 0.00 0.86 0.00 1009.5
20260510062143 11 263 0.0 6.4 0.00 0.86 0.00 1009.5
20260510061640 11 265 1.6 6.4 0.00 0.86 0.00 1009.5
20260510061137 11 216 3.2 6.4 0.00 0.86 0.00 1009.1
20260510060634 11 216 0.0 9.7 0.00 0.86 0.00 1009.1
20260510060133 11 191 3.2 9.7 0.00 0.86 0.00 1009.1
20260510055601 11 213 3.2 9.7 0.00 0.86 0.00 1009.1
20260510055059 11 197 3.2 9.7 0.00 0.86 0.00 1009.1
20260510054557 11 273 1.6 6.4 0.00 0.86 0.00 1009.1
20260510054054 11 274 1.6 9.7 0.00 0.86 0.00 1009.1
20260510053552 11 245 3.2 9.7 0.00 0.86 0.00 1009.1
20260510053050 11 193 1.6 6.4 0.00 0.86 0.00 1009.1
20260510052549 11 193 3.2 6.4 0.00 0.86 0.00 1009.1
20260510052046 11 193 1.6 11.3 0.00 0.86 0.00 1008.8
20260510051545 11 176 4.8 11.3 0.00 0.86 0.00 1008.8
20260510051012 11 163 0.0 11.3 0.00 0.86 0.00 1008.8
20260510050408 11 163 1.6 11.3 0.00 0.86 0.00 1008.8
20260510045907 11 173 4.8 11.3 0.00 0.86 0.00 1008.8
20260510045405 11 174 3.2 9.7 0.00 0.86 0.00 1008.8
20260510044904 11 202 1.6 9.7 0.00 0.86 0.00 1008.8
20260510044403 11 188 3.2 9.7 0.00 0.86 0.00 1008.8
20260510043901 11 193 3.2 11.3 0.00 0.86 0.00 1008.8
20260510043327 11 186 0.0 11.3 0.00 0.86 0.00 1008.8
20260510042826 11 190 4.8 11.3 0.00 0.86 0.00 1008.8
20260510042324 11 179 0.0 6.4 0.00 0.86 0.00 1008.8
20260510041823 11 179 3.2 6.4 0.00 0.86 0.00 1008.8
20260510041322 11 179 1.6 11.3 0.00 0.86 0.00 1008.8
20260510040820 11 179 3.2 11.3 0.00 0.86 0.00 1008.8
20260510040319 11 142 3.2 6.4 0.00 0.86 0.00 1008.8
20260510035745 11 142 1.6 14.5 0.00 0.86 0.86 1008.8
20260510035244 11 142 1.6 14.5 0.00 0.86 0.86 1008.8
20260510034743 11 173 4.8 14.5 0.00 0.86 0.86 1008.8
20260510034242 11 186 0.0 11.3 0.00 0.86 0.86 1008.8
20260510033741 11 184 4.8 11.3 0.00 0.86 0.86 1008.8
20260510033240 11 177 0.0 11.3 0.00 0.86 0.86 1008.8
20260510032707 11 175 3.2 11.3 0.00 0.86 0.86 1008.8
20260510032205 11 176 0.0 11.3 0.00 0.86 0.86 1008.5
20260510031704 11 177 3.2 11.3 0.00 0.86 0.86 1008.8
20260510031203 11 177 3.2 11.3 0.00 0.86 0.86 1008.8
20260510030702 11 177 3.2 11.3 0.00 0.86 0.86 1008.8
20260510030201 11 177 4.8 9.7 0.00 0.86 0.86 1008.8
20260510025659 11 177 0.0 11.3 0.00 0.86 0.86 1009.1
20260510025126 11 171 4.8 11.3 0.00 0.86 0.86 1008.8
20260510024625 11 197 0.0 6.4 0.00 0.86 0.86 1009.1
20260510024123 11 185 0.0 4.8 0.00 0.86 0.86 1009.1
20260510023623 11 186 0.0 4.8 0.00 0.86 0.86 1009.1
20260510023121 11 186 0.0 6.4 0.00 0.86 0.86 1009.1
20260510022617 11 186 0.0 6.4 0.00 0.86 0.86 1009.1
20260510022114 11 186 0.0 6.4 0.00 0.86 0.86 1008.8
20260510021612 11 186 0.0 4.8 0.00 0.86 0.86 1008.8
20260510021109 11 186 0.0 6.4 0.00 0.86 0.86 1008.8
20260510020607 11 186 1.6 6.4 0.00 0.86 0.86 1008.8
20260510020034 11 186 1.6 4.8 0.00 0.86 0.86 1008.8
20260510015533 11 186 0.0 4.8 0.00 0.86 0.86 1009.1
20260510015032 11 186 0.0 6.4 0.00 0.86 0.86 1009.1
20260510014531 11 186 3.2 9.7 0.00 0.86 0.86 1009.1
20260510013959 11 186 0.0 11.3 0.00 0.86 0.86 1008.8
20260510013458 11 186 3.2 11.3 0.00 0.86 0.86 1008.8
20260510012956 11 186 1.6 11.3 0.00 0.86 0.86 1008.8
20260510012454 11 190 3.2 9.7 0.00 0.86 0.86 1009.1
20260510011953 11 215 0.0 4.8 0.00 0.86 0.86 1009.1
20260510011451 11 215 0.0 3.2 0.00 0.86 0.86 1009.1
20260510010950 11 215 0.0 4.8 0.00 0.86 0.86 1009.1
20260510010448 11 215 0.0 4.8 0.00 0.86 0.86 1009.1
20260510005742 11 215 0.0 4.8 0.00 0.86 0.86 1009.1
20260510005239 11 215 0.0 0.0 0.00 0.86 0.86 1009.1
20260510004738 11 215 0.0 0.0 0.00 0.86 0.86 1009.1
20260510004205 11 215 0.0 0.0 0.00 0.86 0.86 1009.1
20260510003704 11 215 0.0 0.0 0.00 0.86 0.86 1008.8
20260510003203 11 215 0.0 3.2 0.00 0.86 0.86 1008.8
20260510002702 11 205 0.0 3.2 0.00 0.86 0.86 1008.8
20260510002201 11 209 0.0 0.0 0.00 0.86 0.86 1008.8
20260510001658 11 209 0.0 0.0 0.00 0.86 0.86 1008.5
20260510001157 11 209 0.0 0.0 0.00 0.86 0.86 1008.5
20260510000656 11 209 0.0 0.0 0.00 0.86 0.86 1008.5
20260510000154 11 209 0.0 0.0 0.00 0.86 0.86 1008.1
20260509235652 12 209 0.0 6.4 0.00 0.86 0.86 1008.1
20260509235151 12 209 0.0 6.4 0.00 0.86 0.86 1008.1
20260509234650 12 209 1.6 9.7 0.00 0.86 0.86 1008.1
20260509234148 12 209 0.0 9.7 0.00 0.86 0.86 1008.1
20260509233646 12 90 0.0 0.0 0.00 0.86 0.86 1008.1
20260509233145 12 90 0.0 0.0 0.00 0.86 0.86 1008.1
20260509232644 12 90 0.0 0.0 0.00 0.86 0.86 1008.1
20260509232142 12 90 0.0 3.2 0.00 0.86 0.86 1008.1
20260509231610 12 90 0.0 3.2 0.00 0.86 0.86 1007.8
20260509231109 11 90 0.0 0.0 0.00 0.86 0.86 1007.8
20260509230607 11 90 0.0 4.8 0.00 0.86 0.86 1008.1
20260509230106 11 90 0.0 4.8 0.00 0.86 0.86 1008.1
20260509225605 11 90 0.0 0.0 0.00 0.86 0.86 1008.1
20260509225031 11 90 0.0 0.0 0.00 0.86 0.86 1008.1
20260509224530 11 90 0.0 0.0 0.00 0.86 0.86 1008.1
20260509224029 11 90 0.0 4.8 0.00 0.86 0.86 1008.1
20260509223527 11 90 0.0 4.8 0.00 0.86 0.86 1008.1
20260509222955 11 90 0.0 4.8 0.00 0.86 0.86 1008.1
20260509222452 11 90 0.0 6.4 0.00 0.86 0.86 1008.1
20260509221950 11 90 0.0 6.4 0.00 0.86 0.86 1008.1
20260509221449 11 90 0.0 6.4 0.00 0.86 0.86 1008.1
20260509220916 11 90 1.6 9.7 0.00 0.86 0.86 1008.1
20260509220344 11 90 1.6 9.7 0.00 0.86 0.86 1008.1
20260509215842 11 43 3.2 9.7 0.00 0.86 0.86 1008.1
20260509215342 11 33 0.0 0.0 0.00 0.86 0.86 1008.1
20260509214809 11 115 0.0 0.0 0.00 0.86 0.86 1008.1
20260509214308 11 115 0.0 0.0 0.00 0.86 0.86 1008.1
20260509213736 11 115 0.0 0.0 0.00 0.86 0.86 1008.5
20260509213235 11 115 0.0 0.0 0.00 0.86 0.86 1008.5
20260509212734 11 115 0.0 0.0 0.00 0.86 0.86 1008.5
20260509212232 11 115 0.0 4.8 0.00 0.86 0.86 1008.5
20260509211730 11 115 0.0 6.4 0.00 0.86 0.86 1008.5
20260509211229 11 115 0.0 6.4 0.00 0.86 0.86 1008.5
20260509210727 11 115 1.6 6.4 0.00 0.86 0.86 1008.5
20260509210226 11 115 0.0 0.0 0.00 0.86 0.86 1008.5
20260509205724 10 115 0.0 0.0 0.00 0.86 0.86 1008.8
20260509205222 10 115 0.0 0.0 0.00 0.86 0.86 1008.8
20260509204721 10 114 0.0 3.2 0.00 0.86 0.86 1008.8
20260509204221 10 115 0.0 3.2 0.00 0.86 0.86 1008.8
20260509203718 10 115 0.0 3.2 0.03 0.86 0.86 1008.8
20260509203145 10 115 0.0 9.7 0.03 0.86 0.86 1008.8
20260509202644 10 111 0.0 9.7 0.03 0.86 0.86 1009.1
20260509202141 10 358 0.0 4.8 0.03 0.86 0.86 1009.1
20260509201640 10 358 0.0 6.4 0.03 0.86 0.86 1009.1
20260509201139 10 358 1.6 6.4 0.03 0.86 0.86 1009.1
20260509200607 10 358 0.0 0.0 0.03 0.86 0.86 1009.1
20260509200105 10 358 0.0 4.8 0.03 0.86 0.86 1009.1
20260509195604 10 358 0.0 4.8 0.03 0.86 0.86 1009.5
20260509195104 10 358 1.6 4.8 0.03 0.86 0.86 1009.5
20260509194531 10 358 0.0 4.8 0.03 0.86 0.86 1009.5
20260509194030 10 358 0.0 6.4 0.03 0.86 0.86 1009.5
20260509193427 10 358 3.2 6.4 0.00 0.84 0.84 1009.5
20260509192854 10 358 0.0 6.4 0.00 0.84 0.84 1009.5
20260509192353 10 358 0.0 6.4 0.00 0.84 0.84 1009.5
20260509191852 10 358 1.6 6.4 0.03 0.84 0.84 1009.5
20260509191351 10 358 1.6 6.4 0.03 0.84 0.84 1009.5
20260509190818 10 358 0.0 4.8 0.05 0.84 0.84 1009.5
20260509190317 10 358 0.0 4.8 0.08 0.84 0.84 1009.8
20260509185814 10 358 1.6 6.4 0.08 0.84 0.84 1009.8
20260509185311 10 358 0.0 6.4 0.10 0.84 0.84 1009.8
20260509184810 10 358 3.2 6.4 0.13 0.84 0.84 1009.8
20260509184308 10 358 0.0 6.4 0.13 0.84 0.84 1009.8
20260509183805 10 358 0.0 6.4 0.15 0.84 0.84 1009.8
20260509183304 10 358 1.6 6.4 0.15 0.84 0.84 1009.8